| time (UTC) | temp F | wind direction | speed knots | gust knots | rain 1hr in | rain 24hr in | rain mn in | humidity % | barometer mb |
| 20260902120705 | 71 | 234 | 0.0 | 1.7 | 0.00 | 0.00 | 0.00 | 59 | 1014.4 |
| 20260902120201 | 71 | 352 | 0.0 | 3.5 | 0.00 | 0.00 | 0.00 | 59 | 1014.5 |
| 20260902115701 | 71 | 0 | 0.0 | 0.0 | 0.00 | 0.00 | 0.00 | 58 | 1014.5 |
| 20260902115157 | 71 | 345 | 0.0 | 0.9 | 0.00 | 0.00 | 0.00 | 58 | 1014.2 |
| 20260902114653 | 71 | 334 | 0.0 | 0.9 | 0.00 | 0.00 | 0.00 | 58 | 1014.2 |
| 20260902114148 | 72 | 0 | 0.0 | 0.9 | 0.00 | 0.00 | 0.00 | 57 | 1014.1 |
| 20260902113643 | 72 | 294 | 0.0 | 0.0 | 0.00 | 0.00 | 0.00 | 56 | 1014.2 |
| 20260902113138 | 73 | 294 | 0.0 | 0.0 | 0.00 | 0.00 | 0.00 | 56 | 1014.3 |
| 20260902112632 | 73 | 270 | 0.0 | 0.0 | 0.00 | 0.00 | 0.00 | 56 | 1014.4 |
| 20260902112130 | 73 | 355 | 0.0 | 1.7 | 0.00 | 0.00 | 0.00 | 55 | 1014.2 |
| 20260902111625 | 73 | 0 | 0.0 | 1.7 | 0.00 | 0.00 | 0.00 | 57 | 1014.4 |
| 20260902111121 | 74 | 81 | 0.0 | 0.0 | 0.00 | 0.00 | 0.00 | 59 | 1014.5 |
| 20260902110617 | 74 | 81 | 0.0 | 0.0 | 0.00 | 0.00 | 0.00 | 60 | 1014.3 |
| 20260902110113 | 74 | 81 | 0.0 | 0.0 | 0.00 | 0.00 | 0.00 | 60 | 1014.3 |
| 20260902105612 | 74 | 78 | 0.0 | 1.7 | 0.00 | 0.00 | 0.00 | 60 | 1014.2 |
| 20260902105107 | 73 | 14 | 0.0 | 0.0 | 0.00 | 0.00 | 0.00 | 61 | 1014.2 |
| 20260902104602 | 73 | 165 | 0.0 | 0.0 | 0.00 | 0.00 | 0.00 | 61 | 1014.2 |
| 20260902104057 | 73 | 165 | 0.0 | 0.9 | 0.00 | 0.00 | 0.00 | 61 | 1014.2 |
| 20260902103552 | 73 | 63 | 0.0 | 0.0 | 0.00 | 0.00 | 0.00 | 59 | 1014.5 |
| 20260902103047 | 75 | 300 | 0.0 | 0.9 | 0.00 | 0.00 | 0.00 | 59 | 1014.2 |
| 20260902102544 | 74 | 8 | 0.0 | 0.0 | 0.00 | 0.00 | 0.00 | 59 | 1014.1 |
| 20260902102041 | 74 | 8 | 0.0 | 0.0 | 0.00 | 0.00 | 0.00 | 60 | 1014.3 |
| 20260902101536 | 73 | 8 | 0.0 | 1.7 | 0.00 | 0.00 | 0.00 | 59 | 1014.4 |
| 20260902101035 | 75 | 345 | 0.9 | 2.6 | 0.00 | 0.00 | 0.00 | 57 | 1014.1 |
| 20260902100534 | 77 | 172 | 0.0 | 0.0 | 0.00 | 0.00 | 0.00 | 56 | 1014.3 |
| 20260902100034 | 77 | 165 | 0.0 | 0.9 | 0.00 | 0.00 | 0.00 | 56 | 1014.1 |
| 20260902095534 | 77 | 164 | 1.7 | 2.6 | 0.00 | 0.00 | 0.00 | 56 | 1014.2 |
| 20260902095033 | 77 | 203 | 0.0 | 0.9 | 0.00 | 0.00 | 0.00 | 56 | 1014.1 |
| 20260902094529 | 77 | 261 | 0.0 | 0.0 | 0.00 | 0.00 | 0.00 | 56 | 1014.1 |
| 20260902094025 | 78 | 187 | 0.0 | 0.9 | 0.00 | 0.00 | 0.00 | 56 | 1014.1 |
| 20260902093519 | 77 | 261 | 0.0 | 1.7 | 0.00 | 0.00 | 0.00 | 55 | 1014.2 |
| 20260902093019 | 79 | 216 | 0.0 | 1.7 | 0.00 | 0.00 | 0.00 | 53 | 1014.2 |
| 20260902092514 | 79 | 173 | 0.9 | 3.5 | 0.00 | 0.00 | 0.00 | 53 | 1014.2 |
| 20260902092009 | 79 | 200 | 0.9 | 2.6 | 0.00 | 0.00 | 0.00 | 53 | 1014.2 |
| 20260902091504 | 79 | 145 | 0.9 | 2.6 | 0.00 | 0.00 | 0.00 | 53 | 1014.4 |
| 20260902091000 | 79 | 180 | 0.9 | 2.6 | 0.00 | 0.00 | 0.00 | 53 | 1014.1 |
| 20260902090455 | 79 | 194 | 1.7 | 3.5 | 0.00 | 0.00 | 0.00 | 54 | 1014.3 |
| 20260902085954 | 79 | 180 | 2.6 | 2.6 | 0.00 | 0.00 | 0.00 | 54 | 1014.2 |
| 20260902085449 | 78 | 183 | 1.7 | 2.6 | 0.00 | 0.00 | 0.00 | 55 | 1014.2 |
| 20260902084944 | 78 | 148 | 1.7 | 1.7 | 0.00 | 0.00 | 0.00 | 55 | 1014.3 |
| 20260902084441 | 77 | 151 | 0.0 | 1.7 | 0.00 | 0.00 | 0.00 | 56 | 1014.2 |
| 20260902083931 | 77 | 81 | 0.0 | 0.0 | 0.00 | 0.00 | 0.00 | 55 | 1014.4 |
| 20260902083430 | 77 | 74 | 0.0 | 0.9 | 0.00 | 0.00 | 0.00 | 54 | 1014.4 |
| 20260902082925 | 78 | 184 | 1.7 | 3.5 | 0.00 | 0.00 | 0.00 | 54 | 1014.1 |
| 20260902082421 | 78 | 170 | 1.7 | 3.5 | 0.00 | 0.00 | 0.00 | 54 | 1014.3 |
| 20260902081918 | 78 | 168 | 0.0 | 2.6 | 0.00 | 0.00 | 0.00 | 54 | 1014.3 |
| 20260902081414 | 78 | 175 | 1.7 | 3.5 | 0.00 | 0.00 | 0.00 | 53 | 1014.4 |
| 20260902080908 | 78 | 151 | 0.0 | 2.6 | 0.00 | 0.00 | 0.00 | 53 | 1014.6 |
| 20260902080404 | 78 | 102 | 0.0 | 1.7 | 0.00 | 0.00 | 0.00 | 52 | 1014.3 |
| 20260902075903 | 78 | 81 | 0.0 | 2.6 | 0.00 | 0.00 | 0.00 | 52 | 1014.2 |
| 20260902075400 | 78 | 150 | 0.0 | 1.7 | 0.00 | 0.00 | 0.00 | 52 | 1014.3 |
| 20260902074855 | 79 | 145 | 0.0 | 1.7 | 0.00 | 0.00 | 0.00 | 53 | 1014.3 |
| 20260902074351 | 80 | 157 | 0.0 | 2.6 | 0.00 | 0.00 | 0.00 | 52 | 1014.5 |
| 20260902073845 | 80 | 177 | 0.0 | 3.5 | 0.00 | 0.00 | 0.00 | 52 | 1014.4 |
| 20260902073342 | 80 | 176 | 1.7 | 3.5 | 0.00 | 0.00 | 0.00 | 51 | 1014.4 |
| 20260902072838 | 80 | 166 | 0.9 | 2.6 | 0.00 | 0.00 | 0.00 | 51 | 1014.2 |
| 20260902072333 | 80 | 184 | 3.5 | 3.5 | 0.00 | 0.00 | 0.00 | 50 | 1014.2 |
| 20260902071830 | 81 | 183 | 2.6 | 4.3 | 0.00 | 0.00 | 0.00 | 50 | 1014.4 |
| 20260902071324 | 81 | 138 | 2.6 | 5.2 | 0.00 | 0.00 | 0.00 | 49 | 1014.1 |
| 20260902070821 | 80 | 155 | 4.3 | 4.3 | 0.00 | 0.00 | 0.00 | 49 | 1014.3 |
| 20260902070320 | 80 | 195 | 1.7 | 2.6 | 0.00 | 0.00 | 0.00 | 49 | 1014.2 |
| 20260902065819 | 80 | 175 | 1.7 | 2.6 | 0.00 | 0.00 | 0.00 | 48 | 1014.5 |
| 20260902065314 | 80 | 202 | 1.7 | 3.5 | 0.00 | 0.00 | 0.00 | 48 | 1014.2 |
| 20260902064810 | 79 | 180 | 1.7 | 3.5 | 0.00 | 0.00 | 0.00 | 48 | 1014.1 |
| 20260902064306 | 80 | 184 | 0.0 | 2.6 | 0.00 | 0.00 | 0.00 | 47 | 1014.1 |
| 20260902063801 | 80 | 180 | 0.9 | 2.6 | 0.00 | 0.00 | 0.00 | 47 | 1014.1 |
| 20260902063255 | 81 | 178 | 3.5 | 3.5 | 0.00 | 0.00 | 0.00 | 46 | 1013.9 |
| 20260902062755 | 80 | 165 | 3.5 | 3.5 | 0.00 | 0.00 | 0.00 | 47 | 1013.9 |
| 20260902062250 | 79 | 163 | 0.0 | 3.5 | 0.00 | 0.00 | 0.00 | 47 | 1013.7 |
| 20260902061749 | 78 | 164 | 2.6 | 3.5 | 0.00 | 0.00 | 0.00 | 48 | 1013.9 |
| 20260902061245 | 78 | 148 | 0.0 | 1.7 | 0.00 | 0.00 | 0.00 | 48 | 1014.2 |
| 20260902060742 | 77 | 162 | 1.7 | 2.6 | 0.00 | 0.00 | 0.00 | 48 | 1014.1 |
| 20260902060237 | 78 | 143 | 1.7 | 3.5 | 0.00 | 0.00 | 0.00 | 48 | 1014.1 |
| 20260902055732 | 79 | 163 | 1.7 | 2.6 | 0.00 | 0.00 | 0.00 | 45 | 1013.9 |
| 20260902055228 | 80 | 195 | 0.9 | 1.7 | 0.00 | 0.00 | 0.00 | 45 | 1013.9 |
| 20260902054723 | 80 | 15 | 0.0 | 0.0 | 0.00 | 0.00 | 0.00 | 44 | 1013.6 |
| 20260902054219 | 80 | 114 | 0.0 | 0.0 | 0.00 | 0.00 | 0.00 | 44 | 1013.8 |
| 20260902053714 | 79 | 66 | 0.0 | 0.9 | 0.00 | 0.00 | 0.00 | 44 | 1013.9 |
| 20260902053214 | 79 | 348 | 0.0 | 1.7 | 0.00 | 0.00 | 0.00 | 44 | 1013.8 |
| 20260902052713 | 80 | 6 | 0.9 | 2.6 | 0.00 | 0.00 | 0.00 | 44 | 1014.1 |
| 20260902052209 | 80 | 36 | 1.7 | 1.7 | 0.00 | 0.00 | 0.00 | 43 | 1013.9 |
| 20260902051708 | 81 | 8 | 0.0 | 0.9 | 0.00 | 0.00 | 0.00 | 43 | 1013.9 |
| 20260902051203 | 81 | 0 | 0.0 | 0.9 | 0.00 | 0.00 | 0.00 | 43 | 1014.2 |
| 20260902050657 | 80 | 23 | 0.0 | 0.0 | 0.00 | 0.00 | 0.00 | 44 | 1013.8 |
| 20260902050153 | 81 | 188 | 0.0 | 0.0 | 0.00 | 0.00 | 0.00 | 43 | 1014.1 |
| 20260902045647 | 81 | 188 | 0.0 | 1.7 | 0.00 | 0.00 | 0.00 | 43 | 1014.1 |
| 20260902045143 | 81 | 29 | 0.0 | 1.7 | 0.00 | 0.00 | 0.00 | 42 | 1014.2 |
| 20260902044638 | 82 | 117 | 0.0 | 2.6 | 0.00 | 0.00 | 0.00 | 42 | 1014.1 |
| 20260902044134 | 82 | 0 | 0.0 | 0.0 | 0.00 | 0.00 | 0.00 | 42 | 1014.2 |
| 20260902043629 | 82 | 0 | 0.0 | 0.0 | 0.00 | 0.00 | 0.00 | 41 | 1014.2 |
| 20260902043124 | 83 | 0 | 0.0 | 1.7 | 0.00 | 0.00 | 0.00 | 41 | 1014.1 |
| 20260902042623 | 83 | 8 | 0.9 | 0.9 | 0.00 | 0.00 | 0.00 | 41 | 1014.5 |
| 20260902042119 | 83 | 81 | 0.0 | 0.9 | 0.00 | 0.00 | 0.00 | 41 | 1014.2 |
| 20260902041618 | 83 | 0 | 1.7 | 3.5 | 0.00 | 0.00 | 0.00 | 42 | 1013.8 |
| 20260902041113 | 82 | 342 | 0.0 | 2.6 | 0.00 | 0.00 | 0.00 | 42 | 1014.1 |
| 20260902040608 | 82 | 0 | 0.0 | 0.9 | 0.00 | 0.00 | 0.00 | 42 | 1013.9 |
| 20260902040103 | 82 | 15 | 0.0 | 0.0 | 0.00 | 0.00 | 0.00 | 42 | 1014.1 |
| 20260902035601 | 82 | 15 | 0.0 | 0.0 | 0.00 | 0.00 | 0.00 | 42 | 1013.9 |
| 20260902035056 | 82 | 15 | 0.0 | 0.0 | 0.00 | 0.00 | 0.00 | 43 | 1013.7 |
| 20260902034555 | 82 | 15 | 0.0 | 0.0 | 0.00 | 0.00 | 0.00 | 43 | 1013.9 |
| 20260902034055 | 83 | 15 | 0.0 | 0.0 | 0.00 | 0.00 | 0.00 | 42 | 1013.8 |
| 20260902033554 | 83 | 15 | 0.0 | 0.9 | 0.00 | 0.00 | 0.00 | 42 | 1013.7 |
| 20260902033049 | 83 | 352 | 0.0 | 1.7 | 0.00 | 0.00 | 0.00 | 43 | 1013.7 |
| 20260902032548 | 83 | 352 | 0.0 | 0.9 | 0.00 | 0.00 | 0.00 | 43 | 1013.3 |
| 20260902032043 | 84 | 353 | 0.0 | 0.0 | 0.00 | 0.00 | 0.00 | 42 | 1013.6 |
| 20260902031538 | 84 | 353 | 0.0 | 2.6 | 0.00 | 0.00 | 0.00 | 42 | 1013.5 |
| 20260902031034 | 84 | 351 | 3.5 | 3.5 | 0.00 | 0.00 | 0.00 | 41 | 1013.4 |
| 20260902030529 | 84 | 8 | 2.6 | 2.6 | 0.00 | 0.00 | 0.00 | 41 | 1013.3 |
| 20260902030028 | 85 | 12 | 1.7 | 2.6 | 0.00 | 0.00 | 0.00 | 41 | 1013.3 |
| 20260902025523 | 85 | 24 | 1.7 | 2.6 | 0.00 | 0.00 | 0.00 | 41 | 1013.0 |
| 20260902025018 | 86 | 0 | 1.7 | 2.6 | 0.00 | 0.00 | 0.00 | 41 | 1013.1 |
| 20260902024514 | 86 | 7 | 0.9 | 1.7 | 0.00 | 0.00 | 0.00 | 41 | 1013.0 |
| 20260902024008 | 86 | 351 | 1.7 | 1.7 | 0.00 | 0.00 | 0.00 | 41 | 1013.0 |
| 20260902023504 | 86 | 14 | 0.9 | 1.7 | 0.00 | 0.00 | 0.00 | 40 | 1013.0 |
| 20260902023004 | 86 | 15 | 0.0 | 1.7 | 0.00 | 0.00 | 0.00 | 40 | 1013.0 |
| 20260902022458 | 86 | 70 | 0.0 | 2.6 | 0.00 | 0.00 | 0.00 | 40 | 1013.1 |
| 20260902021954 | 86 | 53 | 1.7 | 2.6 | 0.00 | 0.00 | 0.00 | 40 | 1012.9 |
| 20260902021449 | 87 | 60 | 1.7 | 3.5 | 0.00 | 0.00 | 0.00 | 39 | 1012.7 |
| 20260902020944 | 87 | 48 | 1.7 | 2.6 | 0.00 | 0.00 | 0.00 | 39 | 1012.3 |
| 20260902020440 | 87 | 45 | 1.7 | 1.7 | 0.00 | 0.00 | 0.00 | 38 | 1012.3 |
| 20260902015936 | 87 | 32 | 1.7 | 2.6 | 0.00 | 0.00 | 0.00 | 38 | 1012.4 |
| 20260902015431 | 88 | 63 | 0.9 | 2.6 | 0.00 | 0.00 | 0.00 | 38 | 1012.4 |
| 20260902014926 | 88 | 23 | 2.6 | 2.6 | 0.00 | 0.00 | 0.00 | 37 | 1012.4 |
| 20260902014423 | 88 | 41 | 2.6 | 3.5 | 0.00 | 0.00 | 0.00 | 37 | 1012.0 |
| 20260902013922 | 88 | 10 | 3.5 | 5.2 | 0.00 | 0.00 | 0.00 | 37 | 1012.2 |
| 20260902013418 | 89 | 4 | 3.5 | 5.2 | 0.00 | 0.00 | 0.00 | 37 | 1012.1 |
| 20260902012913 | 89 | 346 | 4.3 | 4.3 | 0.00 | 0.00 | 0.00 | 37 | 1012.0 |
| 20260902012409 | 89 | 0 | 0.9 | 4.3 | 0.00 | 0.00 | 0.00 | 37 | 1012.2 |
| 20260902011904 | 89 | 19 | 4.3 | 5.2 | 0.00 | 0.00 | 0.00 | 37 | 1011.9 |
| 20260902011359 | 90 | 11 | 2.6 | 5.2 | 0.00 | 0.00 | 0.00 | 37 | 1012.1 |
| 20260902010858 | 90 | 8 | 0.0 | 6.1 | 0.00 | 0.00 | 0.00 | 36 | 1012.0 |
| 20260902010353 | 91 | 30 | 1.7 | 4.3 | 0.00 | 0.00 | 0.00 | 36 | 1012.1 |
| 20260902005853 | 91 | 21 | 4.3 | 7.8 | 0.00 | 0.00 | 0.00 | 36 | 1011.8 |
| 20260902005346 | 91 | 6 | 2.6 | 7.0 | 0.00 | 0.00 | 0.00 | 35 | 1011.9 |
| 20260902004842 | 91 | 15 | 7.0 | 7.8 | 0.00 | 0.00 | 0.00 | 34 | 1011.6 |
| 20260902004337 | 92 | 3 | 5.2 | 7.8 | 0.00 | 0.00 | 0.00 | 33 | 1011.8 |
| 20260902003832 | 92 | 12 | 3.5 | 7.8 | 0.00 | 0.00 | 0.00 | 33 | 1011.9 |
| 20260902003327 | 92 | 355 | 6.1 | 7.8 | 0.00 | 0.00 | 0.00 | 34 | 1011.5 |
| 20260902002823 | 92 | 17 | 6.1 | 7.8 | 0.00 | 0.00 | 0.00 | 34 | 1011.8 |
| 20260902002322 | 92 | 17 | 5.2 | 9.6 | 0.00 | 0.00 | 0.00 | 34 | 1011.5 |
| 20260902001817 | 92 | 18 | 6.1 | 11.3 | 0.00 | 0.00 | 0.00 | 34 | 1011.5 |
| 20260902001313 | 92 | 27 | 7.0 | 13.0 | 0.00 | 0.00 | 0.00 | 34 | 1011.5 |
| 20260902000812 | 93 | 0 | 9.6 | 12.2 | 0.00 | 0.00 | 0.00 | 33 | 1011.6 |
| 20260902000307 | 94 | 351 | 3.5 | 9.6 | 0.00 | 0.00 | 0.00 | 32 | 1011.5 |
| 20260901235803 | 94 | 354 | 0.0 | 6.1 | 0.00 | 0.00 | 0.00 | 30 | 1011.6 |
| 20260901235257 | 94 | 0 | 0.9 | 4.3 | 0.00 | 0.00 | 0.00 | 30 | 1011.4 |
| 20260901234756 | 94 | 357 | 4.3 | 6.1 | 0.00 | 0.00 | 0.00 | 30 | 1011.6 |
| 20260901234251 | 95 | 8 | 6.1 | 8.7 | 0.00 | 0.00 | 0.00 | 30 | 1011.4 |
| 20260901233746 | 94 | 2 | 6.1 | 9.6 | 0.00 | 0.00 | 0.00 | 30 | 1011.4 |
| 20260901233242 | 94 | 4 | 6.1 | 11.3 | 0.00 | 0.00 | 0.00 | 30 | 1011.4 |
| 20260901232742 | 94 | 4 | 11.3 | 13.9 | 0.00 | 0.00 | 0.00 | 30 | 1011.5 |
| 20260901232232 | 95 | 346 | 4.3 | 13.0 | 0.00 | 0.00 | 0.00 | 30 | 1011.3 |
| 20260901231728 | 94 | 343 | 2.6 | 11.3 | 0.00 | 0.00 | 0.00 | 30 | 1011.3 |
| 20260901231224 | 94 | 313 | 0.0 | 8.7 | 0.00 | 0.00 | 0.00 | 30 | 1011.3 |
| 20260901230720 | 94 | 354 | 3.5 | 6.1 | 0.00 | 0.00 | 0.00 | 29 | 1011.2 |
| 20260901230219 | 97 | 15 | 0.0 | 0.9 | 0.00 | 0.00 | 0.00 | 27 | 1011.1 |
| 20260901225714 | 97 | 353 | 0.0 | 2.6 | 0.00 | 0.00 | 0.00 | 27 | 1011.5 |
| 20260901225209 | 98 | 216 | 2.6 | 3.5 | 0.00 | 0.00 | 0.00 | 26 | 1011.6 |
| 20260901224705 | 99 | 192 | 0.9 | 2.6 | 0.00 | 0.00 | 0.00 | 24 | 1011.2 |
| 20260901224201 | 101 | 194 | 0.0 | 1.7 | 0.00 | 0.00 | 0.00 | 24 | 1011.6 |
| 20260901223657 | 98 | 161 | 1.7 | 4.3 | 0.00 | 0.00 | 0.00 | 26 | 1011.4 |
| 20260901223151 | 98 | 194 | 2.6 | 7.0 | 0.00 | 0.00 | 0.00 | 27 | 1011.4 |
| 20260901222647 | 99 | 246 | 2.6 | 6.1 | 0.00 | 0.00 | 0.00 | 26 | 1011.6 |
| 20260901222143 | 98 | 222 | 2.6 | 7.8 | 0.00 | 0.00 | 0.00 | 27 | 1011.3 |
| 20260901221639 | 98 | 199 | 2.6 | 7.0 | 0.00 | 0.00 | 0.00 | 28 | 1011.6 |
| 20260901221135 | 99 | 180 | 6.1 | 7.0 | 0.00 | 0.00 | 0.00 | 27 | 1011.9 |
| 20260901220634 | 100 | 201 | 1.7 | 4.3 | 0.00 | 0.00 | 0.00 | 27 | 1011.4 |
| 20260901220134 | 98 | 220 | 2.6 | 8.7 | 0.00 | 0.00 | 0.00 | 27 | 1011.4 |
| 20260901215632 | 98 | 252 | 6.1 | 7.8 | 0.00 | 0.00 | 0.00 | 27 | 1011.5 |
| 20260901215126 | 100 | 180 | 0.9 | 3.5 | 0.00 | 0.00 | 0.00 | 27 | 1011.6 |
| 20260901214624 | 98 | 157 | 1.7 | 10.4 | 0.00 | 0.00 | 0.00 | 28 | 1011.6 |
| 20260901214119 | 99 | 167 | 5.2 | 7.0 | 0.00 | 0.00 | 0.00 | 27 | 1011.8 |
| 20260901213619 | 98 | 159 | 5.2 | 8.7 | 0.00 | 0.00 | 0.00 | 28 | 1011.8 |
| 20260901213113 | 98 | 174 | 7.0 | 10.4 | 0.00 | 0.00 | 0.00 | 28 | 1011.8 |
| 20260901212608 | 98 | 187 | 3.5 | 6.1 | 0.00 | 0.00 | 0.00 | 28 | 1012.0 |
| 20260901212104 | 98 | 172 | 0.0 | 12.2 | 0.00 | 0.00 | 0.00 | 28 | 1011.9 |
| 20260901211559 | 96 | 193 | 4.3 | 11.3 | 0.00 | 0.00 | 0.00 | 29 | 1011.8 |
| 20260901211055 | 97 | 168 | 1.7 | 6.1 | 0.00 | 0.00 | 0.00 | 28 | 1011.8 |
| 20260901210550 | 98 | 90 | 0.9 | 7.8 | 0.00 | 0.00 | 0.00 | 28 | 1011.8 |
| 20260901210047 | 98 | 140 | 0.0 | 3.5 | 0.00 | 0.00 | 0.00 | 28 | 1012.0 |
| 20260901205542 | 96 | 175 | 7.0 | 7.0 | 0.00 | 0.00 | 0.00 | 28 | 1012.2 |
| 20260901205041 | 99 | 160 | 11.3 | 11.3 | 0.00 | 0.00 | 0.00 | 26 | 1012.1 |
| 20260901204538 | 100 | 168 | 3.5 | 11.3 | 0.00 | 0.00 | 0.00 | 26 | 1012.3 |
| 20260901204033 | 99 | 112 | 1.7 | 6.1 | 0.00 | 0.00 | 0.00 | 27 | 1012.3 |
| 20260901203527 | 98 | 178 | 2.6 | 8.7 | 0.00 | 0.00 | 0.00 | 28 | 1012.5 |
| 20260901203022 | 100 | 117 | 2.6 | 2.6 | 0.00 | 0.00 | 0.00 | 27 | 1012.7 |
| 20260901202517 | 98 | 157 | 2.6 | 5.2 | 0.00 | 0.00 | 0.00 | 28 | 1012.7 |
| 20260901202013 | 98 | 170 | 4.3 | 5.2 | 0.00 | 0.00 | 0.00 | 27 | 1013.0 |
| 20260901201508 | 98 | 182 | 3.5 | 11.3 | 0.00 | 0.00 | 0.00 | 28 | 1012.9 |
| 20260901201003 | 97 | 213 | 2.6 | 6.1 | 0.00 | 0.00 | 0.00 | 28 | 1013.2 |
| 20260901200457 | 98 | 229 | 5.2 | 7.8 | 0.00 | 0.00 | 0.00 | 28 | 1013.1 |
| 20260901195956 | 98 | 174 | 7.8 | 7.8 | 0.00 | 0.00 | 0.00 | 28 | 1013.3 |
| 20260901195455 | 97 | 162 | 1.7 | 3.5 | 0.00 | 0.00 | 0.00 | 29 | 1013.1 |
| 20260901194949 | 97 | 144 | 3.5 | 7.0 | 0.00 | 0.00 | 0.00 | 28 | 1013.2 |
| 20260901194444 | 97 | 191 | 5.2 | 6.1 | 0.00 | 0.00 | 0.00 | 28 | 1013.3 |
| 20260901193940 | 96 | 169 | 2.6 | 10.4 | 0.00 | 0.00 | 0.00 | 28 | 1013.4 |
| 20260901193440 | 97 | 156 | 2.6 | 5.2 | 0.00 | 0.00 | 0.00 | 27 | 1013.2 |
| 20260901192939 | 96 | 177 | 7.0 | 9.6 | 0.00 | 0.00 | 0.00 | 29 | 1013.1 |
| 20260901192435 | 97 | 240 | 6.1 | 6.1 | 0.00 | 0.00 | 0.00 | 28 | 1013.2 |
| 20260901191931 | 97 | 145 | 0.9 | 5.2 | 0.00 | 0.00 | 0.00 | 30 | 1013.7 |
| 20260901191427 | 96 | 187 | 3.5 | 8.7 | 0.00 | 0.00 | 0.00 | 30 | 1013.4 |
| 20260901190922 | 96 | 110 | 2.6 | 7.8 | 0.00 | 0.00 | 0.00 | 31 | 1013.7 |
| 20260901190422 | 97 | 113 | 4.3 | 4.3 | 0.00 | 0.00 | 0.00 | 30 | 1013.7 |
| 20260901185920 | 95 | 243 | 1.7 | 7.8 | 0.00 | 0.00 | 0.00 | 31 | 1013.7 |
| 20260901185420 | 96 | 155 | 4.3 | 7.0 | 0.00 | 0.00 | 0.00 | 31 | 1013.7 |
| 20260901184914 | 95 | 180 | 0.9 | 3.5 | 0.00 | 0.00 | 0.00 | 31 | 1013.8 |
| 20260901184410 | 95 | 186 | 7.8 | 7.8 | 0.00 | 0.00 | 0.00 | 32 | 1013.8 |
| 20260901183905 | 96 | 209 | 0.0 | 5.2 | 0.00 | 0.00 | 0.00 | 31 | 1013.9 |
| 20260901183405 | 94 | 166 | 6.1 | 7.8 | 0.00 | 0.00 | 0.00 | 32 | 1014.2 |
| 20260901182901 | 94 | 160 | 6.1 | 7.8 | 0.00 | 0.00 | 0.00 | 33 | 1014.4 |
| 20260901182355 | 94 | 169 | 2.6 | 7.0 | 0.00 | 0.00 | 0.00 | 34 | 1014.4 |
| 20260901181850 | 93 | 190 | 4.3 | 4.3 | 0.00 | 0.00 | 0.00 | 34 | 1014.6 |
| 20260901181345 | 94 | 197 | 2.6 | 4.3 | 0.00 | 0.00 | 0.00 | 34 | 1014.5 |
| 20260901180844 | 93 | 235 | 1.7 | 6.1 | 0.00 | 0.00 | 0.00 | 35 | 1014.4 |
| 20260901180343 | 93 | 194 | 2.6 | 5.2 | 0.00 | 0.00 | 0.00 | 35 | 1014.6 |
| 20260901175842 | 92 | 177 | 4.3 | 7.0 | 0.00 | 0.00 | 0.00 | 35 | 1014.8 |
| 20260901175337 | 93 | 135 | 1.7 | 6.1 | 0.00 | 0.00 | 0.00 | 35 | 1014.9 |
| 20260901174832 | 93 | 90 | 1.7 | 5.2 | 0.00 | 0.00 | 0.00 | 36 | 1015.0 |
| 20260901174328 | 92 | 243 | 3.5 | 5.2 | 0.00 | 0.00 | 0.00 | 37 | 1014.9 |
| 20260901173823 | 91 | 150 | 1.7 | 7.0 | 0.00 | 0.00 | 0.00 | 38 | 1014.9 |
| 20260901173318 | 91 | 202 | 3.5 | 4.3 | 0.00 | 0.00 | 0.00 | 38 | 1014.9 |
| 20260901172815 | 91 | 192 | 0.9 | 7.0 | 0.00 | 0.00 | 0.00 | 38 | 1015.1 |
| 20260901172314 | 91 | 189 | 1.7 | 10.4 | 0.00 | 0.00 | 0.00 | 39 | 1014.9 |
| 20260901171812 | 90 | 135 | 2.6 | 6.1 | 0.00 | 0.00 | 0.00 | 41 | 1015.1 |
| 20260901171311 | 89 | 180 | 4.3 | 9.6 | 0.00 | 0.00 | 0.00 | 41 | 1015.4 |
| 20260901170810 | 89 | 146 | 1.7 | 7.0 | 0.00 | 0.00 | 0.00 | 41 | 1015.3 |
| 20260901170305 | 90 | 171 | 6.1 | 7.0 | 0.00 | 0.00 | 0.00 | 40 | 1015.3 |
| 20260901165803 | 89 | 183 | 2.6 | 7.8 | 0.00 | 0.00 | 0.00 | 42 | 1015.5 |
| 20260901165258 | 88 | 214 | 4.3 | 7.8 | 0.00 | 0.00 | 0.00 | 43 | 1015.3 |
| 20260901164755 | 89 | 164 | 2.6 | 6.1 | 0.00 | 0.00 | 0.00 | 42 | 1015.4 |
| 20260901164250 | 88 | 179 | 5.2 | 8.7 | 0.00 | 0.00 | 0.00 | 42 | 1015.4 |
| 20260901163745 | 89 | 225 | 4.3 | 5.2 | 0.00 | 0.00 | 0.00 | 42 | 1015.5 |
| 20260901163245 | 88 | 120 | 1.7 | 5.2 | 0.00 | 0.00 | 0.00 | 44 | 1015.4 |
| 20260901162740 | 88 | 194 | 4.3 | 5.2 | 0.00 | 0.00 | 0.00 | 43 | 1015.4 |
| 20260901162239 | 87 | 135 | 2.6 | 5.2 | 0.00 | 0.00 | 0.00 | 45 | 1015.6 |
| 20260901161738 | 86 | 235 | 0.0 | 6.1 | 0.00 | 0.00 | 0.00 | 46 | 1015.3 |
| 20260901161233 | 86 | 191 | 4.3 | 7.0 | 0.00 | 0.00 | 0.00 | 46 | 1015.5 |
| 20260901160729 | 86 | 206 | 2.6 | 6.1 | 0.00 | 0.00 | 0.00 | 47 | 1015.3 |
| 20260901160225 | 86 | 144 | 1.7 | 5.2 | 0.00 | 0.00 | 0.00 | 47 | 1015.3 |
| 20260901155723 | 86 | 201 | 3.5 | 6.1 | 0.00 | 0.00 | 0.00 | 47 | 1015.3 |
| 20260901155218 | 85 | 214 | 4.3 | 7.8 | 0.00 | 0.00 | 0.00 | 48 | 1015.4 |
| 20260901154714 | 84 | 172 | 1.7 | 6.1 | 0.00 | 0.00 | 0.00 | 49 | 1015.5 |
| 20260901154208 | 84 | 186 | 0.9 | 11.3 | 0.00 | 0.00 | 0.00 | 49 | 1015.3 |
| 20260901153704 | 84 | 158 | 5.2 | 9.6 | 0.00 | 0.00 | 0.00 | 50 | 1015.6 |
| 20260901153157 | 84 | 156 | 3.5 | 5.2 | 0.00 | 0.00 | 0.00 | 49 | 1015.3 |
| 20260901152652 | 84 | 152 | 3.5 | 7.0 | 0.00 | 0.00 | 0.00 | 51 | 1015.4 |
| 20260901152151 | 83 | 227 | 5.2 | 7.8 | 0.00 | 0.00 | 0.00 | 52 | 1015.4 |
| 20260901151647 | 82 | 179 | 6.1 | 7.8 | 0.00 | 0.00 | 0.00 | 53 | 1015.7 |
| 20260901151146 | 82 | 188 | 6.1 | 13.0 | 0.00 | 0.00 | 0.00 | 53 | 1015.6 |
| 20260901150645 | 82 | 162 | 3.5 | 12.2 | 0.00 | 0.00 | 0.00 | 53 | 1015.6 |
| 20260901150143 | 82 | 194 | 2.6 | 7.8 | 0.00 | 0.00 | 0.00 | 53 | 1015.4 |
| 20260901145641 | 82 | 192 | 4.3 | 11.3 | 0.00 | 0.00 | 0.00 | 53 | 1015.3 |
| 20260901145136 | 82 | 190 | 4.3 | 10.4 | 0.00 | 0.00 | 0.00 | 54 | 1015.5 |
| 20260901144632 | 82 | 194 | 4.3 | 7.8 | 0.00 | 0.00 | 0.00 | 54 | 1015.6 |
| 20260901144127 | 81 | 194 | 4.3 | 6.1 | 0.00 | 0.00 | 0.00 | 55 | 1015.5 |
| 20260901143622 | 81 | 191 | 0.0 | 7.8 | 0.00 | 0.00 | 0.00 | 56 | 1015.7 |
| 20260901143118 | 80 | 180 | 3.5 | 6.1 | 0.00 | 0.00 | 0.00 | 55 | 1015.6 |
| 20260901142614 | 80 | 152 | 6.1 | 6.1 | 0.00 | 0.00 | 0.00 | 56 | 1015.6 |
| 20260901142113 | 80 | 152 | 4.3 | 6.1 | 0.00 | 0.00 | 0.00 | 56 | 1015.8 |
| 20260901141608 | 79 | 178 | 2.6 | 4.3 | 0.00 | 0.00 | 0.00 | 57 | 1015.8 |
| 20260901141103 | 79 | 191 | 3.5 | 4.3 | 0.00 | 0.00 | 0.00 | 57 | 1015.8 |
| 20260901140601 | 78 | 223 | 3.5 | 3.5 | 0.00 | 0.00 | 0.00 | 57 | 1015.7 |
| 20260901140056 | 78 | 180 | 1.7 | 4.3 | 0.00 | 0.00 | 0.00 | 58 | 1015.8 |
| 20260901135555 | 77 | 175 | 0.9 | 4.3 | 0.00 | 0.00 | 0.00 | 59 | 1015.7 |
| 20260901135050 | 77 | 150 | 1.7 | 3.5 | 0.00 | 0.00 | 0.00 | 59 | 1015.6 |
| 20260901134546 | 77 | 163 | 2.6 | 3.5 | 0.00 | 0.00 | 0.00 | 59 | 1015.6 |
| 20260901134041 | 76 | 105 | 0.0 | 1.7 | 0.00 | 0.00 | 0.00 | 60 | 1015.6 |
| 20260901133540 | 75 | 162 | 0.0 | 1.7 | 0.00 | 0.00 | 0.00 | 61 | 1015.6 |
| 20260901133039 | 75 | 160 | 0.0 | 0.9 | 0.00 | 0.00 | 0.00 | 61 | 1015.3 |
| 20260901132539 | 74 | 160 | 0.0 | 0.9 | 0.00 | 0.00 | 0.00 | 61 | 1015.5 |
| 20260901132039 | 74 | 172 | 0.0 | 0.0 | 0.00 | 0.00 | 0.00 | 62 | 1015.4 |
| 20260901131533 | 74 | 172 | 0.0 | 1.7 | 0.00 | 0.00 | 0.00 | 63 | 1015.1 |
| 20260901131028 | 73 | 180 | 0.9 | 2.6 | 0.00 | 0.00 | 0.00 | 63 | 1015.4 |
| 20260901130528 | 73 | 148 | 1.7 | 1.7 | 0.00 | 0.00 | 0.00 | 63 | 1015.1 |
| 20260901130027 | 73 | 175 | 0.9 | 1.7 | 0.00 | 0.00 | 0.00 | 63 | 1015.4 |
| 20260901125525 | 73 | 180 | 0.0 | 1.7 | 0.00 | 0.00 | 0.00 | 63 | 1015.4 |
| 20260901125015 | 73 | 145 | 0.0 | 1.7 | 0.00 | 0.00 | 0.00 | 63 | 1015.3 |
| 20260901124510 | 73 | 180 | 0.9 | 1.7 | 0.00 | 0.00 | 0.00 | 63 | 1014.8 |
| 20260901124009 | 73 | 157 | 1.7 | 2.6 | 0.00 | 0.00 | 0.00 | 63 | 1014.7 |
| 20260901123505 | 73 | 174 | 0.9 | 3.5 | 0.00 | 0.00 | 0.00 | 63 | 1014.7 |
| 20260901123004 | 73 | 150 | 1.7 | 3.5 | 0.00 | 0.00 | 0.00 | 63 | 1014.5 |
| 20260901122503 | 72 | 147 | 2.6 | 2.6 | 0.00 | 0.00 | 0.00 | 63 | 1014.6 |
| 20260901121956 | 72 | 176 | 3.5 | 3.5 | 0.00 | 0.00 | 0.00 | 63 | 1014.4 |
| 20260901121452 | 73 | 169 | 3.5 | 4.3 | 0.00 | 0.00 | 0.00 | 63 | 1014.6 |
| 20260901120947 | 73 | 162 | 2.6 | 3.5 | 0.00 | 0.00 | 0.00 | 62 | 1014.3 |